EW3336 Arlington VA US current weather conditions

sailwx.info

Wind from 338

Air temperature 7.2° C
Dewpoint -3.9° C

Last reported at 2019-Dec-05 20:45 UTC.
Time now 2019-Dec-05 21:48 UTC

Location: N 38°54' W 077°06'.
View on Google Maps.

See reports from other nearby stations

  
Tides and Currents Weather Stations Pressure Air Temp Water Temp Dewpoint Dewpoint Depression Visibility Wind Speed Wind Dir Waves Ship Positions
date/time (UTC)wind fromknots sea level pressurealtimeterstation pressurevisibilityair tempwater tempwave heightnotes
2019-Dec-05 20:45 338 7.2
2019-Dec-05 20:30 344 7.8
2019-Dec-05 20:15 305 0 gusting 13 7.8
2019-Dec-05 20:00 023 7.8
2019-Dec-05 19:45 344 7.8
2019-Dec-05 19:30 322 7.2
2019-Dec-05 19:15 026 7.8
2019-Dec-05 19:00 348 7.8
2019-Dec-05 18:45 039 7.8
2019-Dec-05 18:30 012 7.2
2019-Dec-05 18:15 349 7.2
2019-Dec-05 18:00 355 6.1
2019-Dec-05 17:45 314 6.7
2019-Dec-05 17:32 019 6.7
2019-Dec-05 17:17 015 1 gusting 10 6.7
2019-Dec-05 17:02 003 4 gusting 17 6.7
2019-Dec-05 16:47 009 6.7
2019-Dec-05 16:32 322 0 gusting 8 6.1
2019-Dec-05 16:16 189 6.1
2019-Dec-05 16:02 036 1 gusting 14 6.1
2019-Dec-05 15:46 350 6.1
2019-Dec-05 15:31 018 5.6
2019-Dec-05 15:16 342 0 gusting 13 5.0
2019-Dec-05 15:02 015 5.0
2019-Dec-05 14:46 340 5.0
2019-Dec-05 14:31 004 0 gusting 14 4.4
2019-Dec-05 14:16 048 4.4
2019-Dec-05 14:00 016 3.9
2019-Dec-05 13:45 314 3.9
2019-Dec-05 13:30 336 3.3
2019-Dec-05 13:16 342 3.3
2019-Dec-05 13:00 290 2.8
2019-Dec-05 12:45 021 2.8
2019-Dec-05 12:30 348 2.8
2019-Dec-05 12:18 353 2.8
2019-Dec-05 12:01 317 2.8
2019-Dec-05 11:46 345 2.8
2019-Dec-05 11:31 348 2.8
2019-Dec-05 11:17 347 2.8
2019-Dec-05 11:02 007 2.8
2019-Dec-05 10:47 350 2.8
2019-Dec-05 10:32 023 2.8
2019-Dec-05 10:16 005 3.3
2019-Dec-05 10:00 304 3.3
2019-Dec-05 09:45 341 3.3
2019-Dec-05 09:31 034 3.3
2019-Dec-05 09:15 007 3.3
2019-Dec-05 09:00 358 3.3
2019-Dec-05 08:45 358 3.3
2019-Dec-05 08:30 315 3.3
2019-Dec-05 08:15 337 3.3
2019-Dec-05 08:00 350 3.3
2019-Dec-05 07:45 351 3.3
2019-Dec-05 07:30 344 3.3
2019-Dec-05 07:15 354 3.9
2019-Dec-05 07:00 342 3.9
2019-Dec-05 06:45 009 3.9
2019-Dec-05 06:30 339 3.9
2019-Dec-05 06:15 280 3.9
2019-Dec-05 06:02 359 3.9
2019-Dec-05 05:47 290 3.9
2019-Dec-05 05:32 309 4.4
2019-Dec-05 05:17 348 5.0
2019-Dec-05 05:02 345 5.0
2019-Dec-05 04:46 354 5.0
2019-Dec-05 04:31 003 5.6
2019-Dec-05 04:18 354 5.6
2019-Dec-05 04:01 351 5.6
2019-Dec-05 03:46 005 5.0
2019-Dec-05 03:31 349 5.0
2019-Dec-05 03:16 267 5.0
2019-Dec-05 03:02 290 5.0
2019-Dec-05 02:47 290 5.0
2019-Dec-05 02:32 304 5.6
2019-Dec-05 02:16 318 5.6
2019-Dec-05 02:02 357 5.6
2019-Dec-05 01:46 349 5.6
2019-Dec-05 01:32 352 5.6
2019-Dec-05 01:16 101 5.6
2019-Dec-05 01:01 349 5.6
2019-Dec-05 00:46 349 5.6
2019-Dec-05 00:31 349 5.6
2019-Dec-05 00:16 349 6.1
2019-Dec-05 00:01 350 6.1
2019-Dec-04 23:46 334 6.7
2019-Dec-04 23:31 005 6.7
2019-Dec-04 23:16 014 7.2
2019-Dec-04 23:02 011 7.2
2019-Dec-04 22:46 355 7.2
2019-Dec-04 22:31 355 7.2
2019-Dec-04 22:16 027 6.7
2019-Dec-04 22:00 060 7.2
2019-Dec-04 21:46 072 7.8
2019-Dec-04 21:31 251 7.8
2019-Dec-04 21:16 302 7.8
2019-Dec-04 21:01 290 7.8
2019-Dec-04 20:46 334 7.8
2019-Dec-04 20:30 192 8.3
2019-Dec-04 20:16 290 8.9
2019-Dec-04 19:46 304 9.4
2019-Dec-04 19:31 308 9.4
2019-Dec-04 19:15 285 7.8
2019-Dec-04 19:00 238 7.8
2019-Dec-04 18:45 295 7.8
2019-Dec-04 18:30 294 8.3
2019-Dec-04 18:15 316 7.8
2019-Dec-04 18:00 285 7.2
2019-Dec-04 17:45 300 6.7
2019-Dec-04 17:30 298 6.1
2019-Dec-04 17:02 290 6.1
2019-Dec-04 16:46 254 5.6
2019-Dec-04 16:31 265 5.0
2019-Dec-04 16:16 152 5.0
2019-Dec-04 16:05 262 4.4
2019-Dec-04 15:46 280 3.9
2019-Dec-04 15:30 280 3.9
2019-Dec-04 15:16 298 3.3
2019-Dec-04 15:01 165 2.8
2019-Dec-04 14:46 296 2.2
2019-Dec-04 14:30 275 2.2
2019-Dec-04 14:15 280 2.2
2019-Dec-04 14:01 280 1.7
2019-Dec-04 13:45 246 1.7
2019-Dec-04 13:30 290 1.1
2019-Dec-04 13:15 311 1.1
2019-Dec-04 13:00 193 1.1
2019-Dec-04 12:45 226 1.1
2019-Dec-04 12:30 217 1.1
2019-Dec-04 12:15 300 1.1
2019-Dec-04 12:00 300 1.1
2019-Dec-04 11:45 300 1.1
2019-Dec-04 11:30 300 1.1
2019-Dec-04 11:16 300 1.1
2019-Dec-04 11:01 300 1.7
2019-Dec-04 10:46 300 1.7
2019-Dec-04 10:32 263 1.7
2019-Dec-04 10:18 256 1.7
2019-Dec-04 10:01 217 1.7
2019-Dec-04 09:47 347 1.7
2019-Dec-04 09:33 347 1.7
2019-Dec-04 09:18 347 1.7
2019-Dec-04 09:01 347 1.7
2019-Dec-04 08:46 347 1.7
2019-Dec-04 08:31 355 1.7
2019-Dec-04 08:16 351 1.7
2019-Dec-04 08:01 352 1.7
2019-Dec-04 07:46 356 1.7
2019-Dec-04 07:31 350 2.2
2019-Dec-04 07:16 349 2.2
2019-Dec-04 07:01 359 2.8
2019-Dec-04 06:46 013 2.2
2019-Dec-04 06:31 008 2.2
2019-Dec-04 06:16 006 2.2
2019-Dec-04 06:01 001 1.7
2019-Dec-04 05:45 001 1.7
2019-Dec-04 05:30 001 2.2
2019-Dec-04 05:16 001 2.2
2019-Dec-04 05:00 001 2.2
2019-Dec-04 04:45 350 2.2
2019-Dec-04 04:30 348 2.8
2019-Dec-04 04:15 355 2.8
2019-Dec-04 04:00 350 2.8
2019-Dec-04 03:45 331 2.8
2019-Dec-04 03:30 350 2.8
2019-Dec-04 03:16 358 2.8
2019-Dec-04 03:00 358 2.8
2019-Dec-04 02:45 354 2.8
2019-Dec-04 02:30 340 2.8
2019-Dec-04 02:15 323 2.8
2019-Dec-04 02:00 357 2.8
2019-Dec-04 01:45 356 2.8
2019-Dec-04 01:30 335 3.3
2019-Dec-04 01:15 026 3.3
2019-Dec-04 01:00 356 3.3
2019-Dec-04 00:45 118 3.3
2019-Dec-04 00:30 351 3.3
2019-Dec-04 00:15 343 3.3
2019-Dec-04 00:00 352 3.3
2019-Dec-03 23:45 003 3.3
2019-Dec-03 23:30 323 3.9
2019-Dec-03 23:15 003 3.9
2019-Dec-03 23:00 009 3.9
2019-Dec-03 22:45 344 4.4
2019-Dec-03 22:30 335 4.4
2019-Dec-03 22:15 001 5.0
2019-Dec-03 22:00 023 5.0
2019-Dec-03 21:45 305 5.6
2019-Dec-03 21:30 359 5.6
2019-Dec-03 21:15 023 6.1
2019-Dec-03 21:00 026 6.7